Location: Quispamsis
(45.4447°N, 65.9414°W)
Time: 18:45:02
(UTC-03:00)

Daily predictions for brighter satellites

Satellite Brightness Start Highest point End
(mag) Time Altitude Azimuth Time Altitude Azimuth Time Altitude Azimuth
Cosmos 2123 Rocket 4.1 20:22:24 10° N 20:28:37 90° SW 20:34:48 10° S
Meteor 1-28 Rocket 4.1 20:27:32 10° N 20:31:17 56° WNW 20:35:00 10° SSW
Resurs 1-3 3.7 20:28:13 10° SSE 20:32:37 84° WSW 20:37:02 10° NNW
H-2A R/B 3.1 20:29:53 10° SE 20:33:39 47° ENE 20:37:28 10° N
Cosmos 1937 Rocket 3.8 20:28:43 10° NNW 20:33:55 54° ENE 20:39:06 10° SE
Cosmos 2263 Rocket 4.1 20:30:57 10° N 20:34:03 15° NE 20:37:07 10° ENE
RESURS DK-1 2.4 20:32:07 10° NNW 20:36:16 66° ENE 20:40:23 10° SE
Envisat 4.3 20:33:18 10° ESE 20:37:08 22° ENE 20:40:59 10° NNE
Cosmos 990 Rocket 4.4 20:34:47 10° N 20:39:51 45° ENE 20:44:51 10° SE
SL-24 R/B - RUBIN 2 4.5 20:34:49 10° SSW 20:40:47 86° SE 20:47:25 10° NE
Cosmos 2227 Rocket 3.7 20:38:28 10° NW 20:43:41 39° WSW 20:48:52 10° S
CZ-4 DEB 4.2 20:42:08 10° ESE 20:44:33 21° ENE 20:46:59 10° NNE
EO 1 Delta rocket 4.1 20:39:51 10° NNE 20:44:37 62° E 20:50:15 10° S
Tiangong 1 2.6 20:43:41 10° W 20:46:23 27° SSW 20:49:05 10° SE
Cosmos 2298 Rocket 4.2 20:41:43 10° NNW 20:47:04 82° WSW 20:52:23 10° SSE
Helios 1A 4.3 20:44:21 10° S 20:48:20 43° W 20:52:22 10° NNW
Cosmos 2322 Rocket 3.6 20:46:34 10° SE 20:49:50 16° E 20:53:07 10° ENE
Cosmos 1500 3.2 20:47:45 10° S 20:51:25 54° E 20:55:09 10° NNE
Cosmos 1340 3.5 20:49:42 10° N 20:53:09 32° ENE 20:56:18 12° SE
ERS-1 Rocket 3.6 20:49:20 10° SE 20:53:55 37° ENE 20:58:31 10° N
Cosmos 2297 Rocket 3.5 20:52:56 10° NW 20:58:14 41° WSW 21:03:29 10° S
CZ-2D R/B 3.5 20:57:32 10° S 21:01:25 75° WSW 21:05:20 10° NNW
Resurs 01 Rocket 3.6 21:00:21 10° SSW 21:04:18 31° W 21:08:15 10° NNW
Cosmos 1153 Rocket 4.5 20:58:25 10° S 21:04:35 87° E 21:10:46 10° N
Cosmos 1763 Rocket 3.8 21:01:17 10° S 21:06:02 42° ESE 21:10:49 10° NE
Cosmos 1975 3.4 21:02:36 10° SSW 21:06:40 63° W 21:10:45 10° N
Cosmos 1726 Rocket 4.4 21:03:25 10° SSE 21:07:14 30° E 21:11:05 10° NNE
Cosmos 2227 4.2 21:07:18 10° NNW 21:13:05 73° ENE 21:18:02 14° SSE
Cosmos 1825 Rocket 3.5 21:15:57 10° N 21:20:23 73° E 21:24:23 12° SSE
Meteor 1-21 4.3 21:15:00 10° N 21:20:47 67° ENE 21:26:15 12° SSE
Cosmos 1802 Rocket 4.1 21:17:09 10° S 21:23:28 64° E 21:29:49 10° NNE
ASTEX 1 4.2 21:19:07 10° NNE 21:23:33 31° E 21:25:43 22° SE
Cosmos 1125 Rocket 3.9 21:20:13 10° N 21:25:15 46° ENE 21:28:11 23° SE
Cosmos 2016 Rocket 4.1 21:19:41 10° SSE 21:25:38 55° E 21:31:43 10° NNE
Cosmos 405 Rocket 4.3 21:26:26 10° NNE 21:29:08 19° ENE 21:29:16 18° ENE
Cosmos 841 Rocket 3.4 21:26:59 10° S 21:32:09 64° ESE 21:37:19 10° NNE
Cosmos 2228 3.9 21:31:32 27° ESE 21:32:13 28° E 21:35:55 10° NNE
Cosmos 1697 Rocket 3.3 21:27:16 10° SW 21:32:50 61° WNW 21:38:27 10° NNE
Cosmos 540 Rocket 4.4 21:32:24 25° ESE 21:33:12 26° E 21:37:26 10° NE
Cosmos 1953 Rocket 3.5 21:28:51 10° N 21:33:20 73° E 21:36:27 19° SSE
H-2A R/B 2.3 21:35:01 30° ESE 21:36:35 45° ENE 21:40:36 10° N
Cosmos 2173 Rocket 4.0 21:30:53 10° S 21:37:14 89° ESE 21:43:35 10° N
Cosmos 1743 2.9 21:34:16 10° SSW 21:38:10 76° W 21:42:06 10° N
ARGOS 4.2 21:38:52 24° E 21:40:43 29° ENE 21:45:20 10° N
Cosmos 2098 Rocket 3.9 21:34:47 10° SSE 21:41:07 54° E 21:46:15 10° NNE
MetOp-B 4.4 21:44:18 29° SE 21:46:39 49° ENE 21:51:49 10° N
Lacrosse 5 3.8 21:43:08 10° WNW 21:47:01 22° WSW 21:50:54 10° S
SL-16 R/B 2.4 21:43:17 10° S 21:48:38 45° ESE 21:54:01 10° NE
Cosmos 1939 Rocket 3.0 21:46:28 24° S 21:48:55 81° WSW 21:53:06 10° NNW
Cosmos 1758 Rocket 3.5 21:47:04 10° N 21:51:26 84° W 21:53:44 27° S
Cosmos 372 Rocket 4.3 21:46:37 10° NNW 21:51:36 48° ENE 21:53:16 35° ESE
Cosmos 1864 Rocket 4.4 21:49:59 17° SSE 21:54:38 61° E 22:00:40 10° NNE
Cosmos 1980 Rocket 2.7 21:52:08 10° SW 21:57:46 63° WNW 22:03:26 10° NNE
Cosmos 2360 Rocket 3.8 22:00:51 17° ENE 22:00:51 17° ENE 22:02:47 10° NE
SPOT 5 2.8 21:57:22 37° SE 21:59:12 69° ENE 22:03:52 10° N
Terra 3.4 22:08:11 20° ENE 22:08:12 20° ENE 22:11:40 10° NNE
YAOGAN 6 2.6 22:08:21 66° ENE 22:08:21 66° ENE 22:12:03 10° N
deb Chang Zheng 4 3.5 22:04:29 10° NNE 22:08:58 77° ESE 22:10:31 40° S
Tsikada Rocket 4.0 22:03:35 10° N 22:10:03 86° E 22:13:33 29° S
Cosmos 1666 3.2 22:13:59 31° SW 22:15:35 58° W 22:19:22 10° N
Envisat 3.6 22:12:38 22° S 22:15:47 54° W 22:20:47 10° NNW
Cosmos 1842 4.0 22:13:49 10° NNW 22:17:36 48° W 22:18:45 35° SW
CZ-4B R/B 4.3 22:14:00 10° NNE 22:17:10 31° ENE 22:17:10 31° ENE
Cosmos 2263 Rocket 2.1 22:13:28 10° NNW 22:19:02 70° ENE 22:20:21 52° SE
Cosmos 1707 4.2 22:17:18 10° N 22:19:40 26° NE 22:19:40 26° NE
Cosmos 1816 Rocket 4.4 22:15:42 10° N 22:22:08 85° E 22:24:43 39° SSE
Cosmos 2058 Rocket 3.7 22:22:10 19° SSW 22:25:14 55° WNW 22:29:41 10° N
SL-08 RB Rocket 3.9 22:26:15 54° ENE 22:26:15 54° ENE 22:30:45 10° N
Cosmos 1725 Rocket 4.1 22:23:02 15° SSW 22:28:16 76° W 22:34:33 10° N
BREEZE-M DEB (TANK) 3.9 22:09:11 10° WNW 22:30:41 85° SSW 22:32:51 47° ESE
MetOp-A 4.3 22:31:12 41° S 22:33:00 67° WSW 22:38:22 10° NNW
Cosmos 2322 Rocket 2.2 22:27:32 10° SSW 22:33:08 79° WNW 22:38:48 10° NNE
SL-19 R/B 4.0 22:42:21 10° NNE 22:47:48 87° ESE 22:48:20 73° S
Cosmos 2233 Rocket 3.9 22:46:04 44° SSW 22:48:13 85° W 22:54:32 10° N
Genesis I 4.3 22:49:36 10° NW 22:52:24 43° NW 22:52:24 43° NW
H-2A R/B 2.2 22:54:29 58° NE 22:54:29 58° NE 22:58:47 10° N
USA 215 3.6 22:52:31 41° E 22:54:37 56° NNE 23:00:59 10° NW
Meteor 2-5 Rocket 3.7 22:50:45 10° NNW 22:56:41 83° W 22:57:20 71° SSW
Cosmos 1812 Rocket 4.3 22:58:18 49° N 22:58:18 49° N 23:01:31 10° N
Meteor 1-24 Rocket 3.9 22:53:50 10° N 22:59:50 65° ENE 22:59:50 65° ENE
COSMOS 2428 4.4 23:12:30 21° NE 23:12:30 21° NE 23:14:28 10° NE
H-2A R/B 4.3 23:12:09 16° WSW 23:12:52 17° W 23:15:37 10° NW
SPOT 1/Viking Rocket 4.3 23:13:18 43° WSW 23:13:41 44° W 23:18:41 10° NNW
Cosmos 2278 Rocket 3.6 23:10:29 10° N 23:15:11 26° NE 23:15:11 26° NE
Cosmos 2034 Rocket 4.3 23:19:37 52° NE 23:19:37 52° NE 23:24:41 10° NNE
ARGOS 3.9 23:20:24 42° WSW 23:20:46 43° W 23:25:55 10° NNW
Cosmos 371 Rocket 4.2 23:20:55 46° WNW 23:21:04 46° WNW 23:25:44 10° N
Cosmos 1844 Rocket 3.2 23:24:05 10° NNW 23:28:41 52° NNE 23:28:41 52° NNE
SL-16 R/B 3.8 23:27:50 10° WSW 23:32:53 32° NW 23:37:59 10° N
Cosmos 1464 Rocket 4.1 23:39:00 75° WNW 23:39:00 75° WNW 23:45:17 10° N
Cosmos 2360 Rocket 2.6 23:42:34 59° NW 23:42:34 59° NW 23:47:44 10° NNE
Cosmos 1844 4.4 23:37:20 10° NNW 23:41:49 49° NNE 23:41:49 49° NNE
Terra 3.1 23:47:05 37° NW 23:47:05 37° NW 23:50:15 10° NNW
Nadezhda 4 Rocket 4.2 23:39:57 10° N 23:45:28 66° NNE 23:45:28 66° NNE
Lacrosse 4 Rocket 3.9 23:57:50 19° NNE 23:57:50 19° NNE 23:59:13 10° NNE
